| time (UTC) | temp F | wind direction | speed knots | gust knots | rain 1hr in | rain 24hr in | rain mn in | humidity % | barometer mb |
| 20260505211519 | 78 | 233 | 1.7 | 12.2 | 0.00 | 0.00 | 0.00 | 39 | 1005.3 |
| 20260505210018 | 79 | 223 | 1.7 | 21.7 | 0.00 | 0.00 | 0.00 | 37 | 1005.0 |
| 20260505204519 | 80 | 252 | 0.9 | 15.6 | 0.00 | 0.00 | 0.00 | 37 | 1004.8 |
| 20260505203016 | 80 | 180 | 1.7 | 13.9 | 0.00 | 0.00 | 0.00 | 39 | 1005.1 |
| 20260505201521 | 81 | 252 | 2.6 | 19.1 | 0.00 | 0.00 | 0.00 | 36 | 1005.2 |
| 20260505200015 | 81 | 194 | 1.7 | 15.6 | 0.00 | 0.00 | 0.00 | 37 | 1005.3 |
| 20260505194528 | 82 | 211 | 1.7 | 10.4 | 0.00 | 0.00 | 0.00 | 39 | 1005.2 |
| 20260505193031 | 81 | 190 | 2.6 | 11.3 | 0.00 | 0.00 | 0.00 | 39 | 1005.5 |
| 20260505191511 | 82 | 242 | 2.6 | 17.4 | 0.00 | 0.00 | 0.00 | 37 | 1005.8 |
| 20260505190010 | 82 | 219 | 3.5 | 13.9 | 0.00 | 0.00 | 0.00 | 40 | 1005.8 |
| 20260505184507 | 82 | 246 | 2.6 | 18.2 | 0.00 | 0.00 | 0.00 | 37 | 1005.9 |
| 20260505183007 | 82 | 192 | 1.7 | 14.8 | 0.00 | 0.00 | 0.00 | 37 | 1005.9 |
| 20260505181504 | 82 | 221 | 7.0 | 20.9 | 0.00 | 0.00 | 0.00 | 38 | 1006.3 |
| 20260505180058 | 81 | 221 | 3.5 | 17.4 | 0.00 | 0.00 | 0.00 | 43 | 1006.3 |
| 20260505174608 | 81 | 187 | 4.3 | 15.6 | 0.00 | 0.00 | 0.00 | 42 | 1006.6 |
| 20260505173049 | 81 | 192 | 1.7 | 9.6 | 0.00 | 0.00 | 0.00 | 45 | 1006.7 |
| 20260505171548 | 81 | 137 | 2.6 | 9.6 | 0.00 | 0.00 | 0.00 | 45 | 1006.9 |
| 20260505170108 | 79 | 152 | 4.3 | 12.2 | 0.00 | 0.00 | 0.00 | 45 | 1007.0 |
| 20260505164543 | 80 | 220 | 0.9 | 10.4 | 0.00 | 0.00 | 0.00 | 50 | 1007.3 |
| 20260505163044 | 80 | 202 | 2.6 | 7.0 | 0.00 | 0.00 | 0.00 | 47 | 1007.4 |
| 20260505161543 | 79 | 231 | 1.7 | 7.8 | 0.00 | 0.00 | 0.00 | 47 | 1007.6 |
| 20260505153035 | 77 | 237 | 2.6 | 10.4 | 0.00 | 0.00 | 0.00 | 52 | 1008.2 |
| 20260505151529 | 76 | 217 | 1.7 | 8.7 | 0.00 | 0.00 | 0.00 | 54 | 1008.3 |
| 20260505124531 | 62 | 207 | 1.7 | 10.4 | 0.00 | 0.00 | 0.00 | 76 | 1008.9 |
| 20260505123049 | 60 | 217 | 0.9 | 4.3 | 0.00 | 0.00 | 0.00 | 81 | 1008.6 |
| 20260505121523 | 58 | 205 | 0.9 | 7.0 | 0.00 | 0.00 | 0.00 | 84 | 1008.5 |
| 20260505120026 | 57 | 208 | 0.9 | 5.2 | 0.00 | 0.00 | 0.00 | 89 | 1008.6 |
| 20260505114516 | 56 | 210 | 0.0 | 4.3 | 0.00 | 0.00 | 0.00 | 91 | 1008.8 |
| 20260505113034 | 54 | 213 | 0.0 | 4.3 | 0.00 | 0.00 | 0.00 | 94 | 1009.0 |
| 20260505111544 | 52 | 205 | 0.0 | 2.6 | 0.00 | 0.00 | 0.00 | 93 | 1008.9 |
| 20260505101518 | 51 | 206 | 0.0 | 0.0 | 0.00 | 0.00 | 0.00 | 88 | 1008.8 |
| 20260505100018 | 50 | 234 | 0.0 | 1.7 | 0.00 | 0.00 | 0.00 | 86 | 1008.9 |
| 20260505094517 | 51 | 234 | 0.0 | 3.5 | 0.00 | 0.00 | 0.00 | 86 | 1008.6 |
| 20260505093014 | 50 | 238 | 0.0 | 0.0 | 0.00 | 0.00 | 0.00 | 86 | 1008.3 |
| 20260505091514 | 50 | 238 | 0.0 | 0.0 | 0.00 | 0.00 | 0.00 | 86 | 1008.1 |
| 20260505090013 | 50 | 238 | 0.0 | 0.0 | 0.00 | 0.00 | 0.00 | 85 | 1007.9 |
| 20260505084517 | 50 | 238 | 0.0 | 0.0 | 0.00 | 0.00 | 0.00 | 85 | 1007.8 |
| 20260505083015 | 50 | 238 | 0.0 | 0.0 | 0.00 | 0.00 | 0.00 | 84 | 1007.9 |
| 20260505081516 | 50 | 238 | 0.0 | 2.6 | 0.00 | 0.00 | 0.00 | 84 | 1008.0 |
| 20260505080028 | 50 | 238 | 0.0 | 0.0 | 0.00 | 0.00 | 0.00 | 85 | 1007.9 |
| 20260505074510 | 49 | 238 | 0.0 | 0.0 | 0.00 | 0.00 | 0.00 | 84 | 1007.9 |
| 20260505073012 | 50 | 238 | 0.0 | 0.0 | 0.00 | 0.00 | 0.00 | 83 | 1007.9 |
| 20260505071507 | 50 | 238 | 0.0 | 0.0 | 0.00 | 0.00 | 0.00 | 83 | 1007.8 |
| 20260505070006 | 50 | 238 | 0.0 | 0.0 | 0.00 | 0.00 | 0.00 | 82 | 1007.9 |
| 20260505064502 | 50 | 238 | 0.0 | 0.0 | 0.00 | 0.00 | 0.00 | 80 | 1008.0 |
| 20260505063100 | 51 | 238 | 0.0 | 0.0 | 0.00 | 0.00 | 0.00 | 80 | 1008.0 |
| 20260505061558 | 52 | 238 | 0.0 | 0.0 | 0.00 | 0.00 | 0.00 | 78 | 1008.1 |
| 20260505054603 | 52 | 238 | 0.0 | 3.5 | 0.00 | 0.00 | 0.00 | 77 | 1008.2 |
| 20260505053110 | 52 | 239 | 0.0 | 1.7 | 0.00 | 0.00 | 0.00 | 76 | 1008.2 |
| 20260505051555 | 52 | 239 | 0.0 | 1.7 | 0.00 | 0.00 | 0.00 | 76 | 1008.2 |
| 20260505041609 | 53 | 220 | 0.0 | 0.0 | 0.00 | 0.00 | 0.00 | 74 | 1008.4 |
| 20260505040046 | 53 | 220 | 0.0 | 0.0 | 0.00 | 0.00 | 0.00 | 74 | 1008.4 |
| 20260505034547 | 53 | 220 | 0.0 | 0.0 | 0.00 | 0.00 | 0.00 | 74 | 1008.4 |
| 20260505033042 | 53 | 220 | 0.0 | 0.0 | 0.00 | 0.00 | 0.00 | 73 | 1008.6 |
| 20260505031543 | 54 | 220 | 0.0 | 0.0 | 0.00 | 0.00 | 0.00 | 72 | 1008.7 |
| 20260505030044 | 54 | 220 | 0.0 | 0.0 | 0.00 | 0.00 | 0.00 | 71 | 1008.7 |
| 20260505024545 | 54 | 220 | 0.0 | 0.0 | 0.00 | 0.00 | 0.00 | 72 | 1008.7 |
| 20260505023045 | 55 | 220 | 0.0 | 0.0 | 0.00 | 0.00 | 0.00 | 70 | 1008.7 |
| 20260505021544 | 55 | 220 | 0.0 | 0.0 | 0.00 | 0.00 | 0.00 | 68 | 1008.8 |
| 20260505020038 | 56 | 220 | 0.0 | 0.0 | 0.00 | 0.00 | 0.00 | 66 | 1008.7 |
| 20260505014542 | 57 | 220 | 0.0 | 0.0 | 0.00 | 0.00 | 0.00 | 66 | 1008.6 |
| 20260505013036 | 57 | 220 | 0.0 | 0.0 | 0.00 | 0.00 | 0.00 | 64 | 1008.6 |
| 20260505011536 | 58 | 220 | 0.0 | 0.0 | 0.00 | 0.00 | 0.00 | 63 | 1008.5 |
| 20260505010041 | 59 | 220 | 0.0 | 0.0 | 0.00 | 0.00 | 0.00 | 60 | 1008.2 |
| 20260505004535 | 60 | 220 | 0.0 | 0.0 | 0.00 | 0.00 | 0.00 | 58 | 1008.2 |
| 20260505003033 | 61 | 220 | 0.0 | 0.0 | 0.00 | 0.00 | 0.00 | 56 | 1008.0 |
| 20260505001545 | 63 | 220 | 0.0 | 0.0 | 0.00 | 0.00 | 0.00 | 53 | 1007.9 |
| 20260505000039 | 64 | 220 | 0.0 | 3.5 | 0.00 | 0.00 | 0.00 | 51 | 1007.6 |
| 20260504234533 | 65 | 204 | 0.0 | 8.7 | 0.00 | 0.00 | 0.00 | 50 | 1007.4 |
| 20260504233031 | 65 | 229 | 2.6 | 7.8 | 0.00 | 0.00 | 0.00 | 48 | 1007.2 |
| 20260504231541 | 66 | 229 | 0.0 | 6.1 | 0.00 | 0.00 | 0.00 | 46 | 1007.0 |
| 20260504230030 | 67 | 201 | 0.9 | 7.8 | 0.00 | 0.00 | 0.00 | 45 | 1006.9 |
| 20260504224535 | 68 | 214 | 0.0 | 4.3 | 0.00 | 0.00 | 0.00 | 46 | 1006.8 |
| 20260504223028 | 68 | 215 | 0.9 | 9.6 | 0.00 | 0.00 | 0.00 | 43 | 1007.0 |
| 20260504221527 | 69 | 227 | 0.0 | 8.7 | 0.00 | 0.00 | 0.00 | 42 | 1006.9 |
| 20260504220030 | 69 | 213 | 0.9 | 7.0 | 0.00 | 0.00 | 0.00 | 43 | 1007.0 |
| 20260504214525 | 69 | 215 | 0.9 | 6.1 | 0.00 | 0.00 | 0.00 | 42 | 1007.1 |
| 20260504213023 | 69 | 248 | 0.0 | 6.1 | 0.00 | 0.00 | 0.00 | 42 | 1007.3 |